Burlington, IA

8:10 AM CST on November 21, 2019 (GMT -0600)
Burlington Regional

Weather History for KBRL - September, 2019

Change the Weather History Date:

Saturday, September 21, 2019

  Actual Average Record
Temperature  
Mean Temperature 76 °F 65 °F  
Max Temperature 80 °F 77 °F 94 °F (1908)
Min Temperature 72 °F 54 °F 35 °F (1918)
Degree Days  
Heating Degree Days 0 3  
Month to date heating degree days 0 28  
Since 1 July heating degree days 0 32  
Cooling Degree Days 11 3  
Month to date cooling degree days 192 118  
Year to date cooling degree days 1182 1161  
Growing Degree Days 26 (Base 50)    
Moisture  
Dew Point 69 °F    
Average Humidity 84    
Maximum Humidity 93    
Minimum Humidity 74    
Precipitation  
Precipitation 0.11 in 0.12 in 0.99 in (2003)
Month to date precipitation 2.78 2.57  
Year to date precipitation 34.51 29.82  
Sea Level Pressure  
Sea Level Pressure 30.00 in    
Wind  
Wind Speed 11 mph (South)    
Max Wind Speed 18 mph    
Max Gust Speed 27 mph    
Visibility 10 miles    
Events Rain    
T = Trace of Precipitation, MM = Missing Value Source: NWS Daily Summary

Daily Weather History Graph

Daily Weather History Graph

Search for Another Location

Airport or City:

Astronomy

Sep. 21, 2019 Rise Set
Actual Time 6:50 AM CDT 7:03 PM CDT
Civil Twilight 6:23 AM CDT 7:31 PM CDT
Nautical Twilight 5:51 AM CDT 8:03 PM CDT
Astronomical Twilight 5:18 AM CDT 8:35 PM CDT
Moon 11:39 PM CDT 1:59 PM CDT
Length of Visible Light 13h 07m
Length of Day
12h 12m
Waning Gibbous, 54% of the Moon is Illuminated
Sep 21
Waning Gibbous
Sep 21
Last Quarter
Sep 28
New
Oct 5
First Quarter
Oct 13
Full

Hourly Weather History & Observations

Time (CDT) Temp. Dew Point Humidity Pressure Visibility Wind Dir Wind Speed Gust Speed Precip Events Conditions
12:53 AM 73.9 °F 66.9 °F 79% 30.01 in 10.0 mi South 11.5 mph 23.0 mph N/A   Clear
1:53 AM 73.0 °F 66.9 °F 81% 30.02 in 10.0 mi South 12.7 mph - N/A   Clear
2:53 AM 72.0 °F 66.9 °F 84% 30.01 in 10.0 mi South 10.4 mph - N/A   Clear
3:53 AM 73.0 °F 66.9 °F 81% 30.01 in 10.0 mi South 12.7 mph - N/A   Mostly Cloudy
4:28 AM 73.0 °F 66.9 °F 81% 30.03 in 10.0 mi South 11.5 mph - N/A   Overcast
4:43 AM 73.0 °F 66.9 °F 81% 30.03 in 10.0 mi South 10.4 mph - N/A   Overcast
4:53 AM 73.0 °F 66.9 °F 81% 30.02 in 10.0 mi South 15.0 mph 20.7 mph N/A   Overcast
5:51 AM 73.4 °F 68.0 °F 83% 30.03 in 10.0 mi South 9.2 mph - N/A   Overcast
5:53 AM 73.0 °F 68.0 °F 84% 30.02 in 10.0 mi South 10.4 mph - N/A   Overcast
6:53 AM 73.0 °F 68.0 °F 84% 30.01 in 10.0 mi South 13.8 mph - N/A   Overcast
7:53 AM 73.0 °F 68.0 °F 84% 30.02 in 10.0 mi South 11.5 mph 21.9 mph N/A   Overcast
8:53 AM 73.0 °F 68.0 °F 84% 30.02 in 10.0 mi SSW 11.5 mph - N/A   Overcast
9:03 AM 73.9 °F 68.0 °F 82% 30.04 in 10.0 mi South 11.5 mph - N/A   Overcast
9:53 AM 73.9 °F 68.0 °F 82% 30.02 in 10.0 mi South 12.7 mph 19.6 mph 0.00 in   Overcast
10:53 AM 78.1 °F 70.0 °F 76% 30.02 in 10.0 mi SSW 13.8 mph 20.7 mph 0.01 in   Overcast
11:05 AM 79.0 °F 69.1 °F 72% 30.03 in 10.0 mi SSW 15.0 mph 23.0 mph N/A   Overcast
11:14 AM 79.0 °F 69.1 °F 72% 30.03 in 10.0 mi SSW 15.0 mph 23.0 mph N/A   Overcast
11:53 AM 78.1 °F 69.1 °F 74% 30.01 in 10.0 mi SSW 10.4 mph - N/A   Overcast
12:53 PM 79.0 °F 70.0 °F 74% 29.99 in 10.0 mi South 17.3 mph 24.2 mph N/A   Overcast
1:24 PM 78.1 °F 70.0 °F 76% 30.00 in 10.0 mi South 10.4 mph - N/A   Overcast
1:46 PM 78.1 °F 70.0 °F 76% 30.00 in 10.0 mi South 9.2 mph - N/A   Overcast
1:53 PM 78.1 °F 70.0 °F 76% 29.99 in 10.0 mi South 10.4 mph - N/A   Overcast
2:19 PM 79.0 °F 70.0 °F 74% 29.99 in 10.0 mi SSW 11.5 mph - N/A   Overcast
2:53 PM 79.0 °F 70.0 °F 74% 29.97 in 10.0 mi SSW 12.7 mph - N/A   Overcast
3:16 PM 79.0 °F 70.0 °F 74% 29.98 in 10.0 mi SW 9.2 mph - N/A   Overcast
3:53 PM 75.9 °F 72.0 °F 87% 29.97 in 10.0 mi SSW 10.4 mph - 0.01 in   Overcast
4:24 PM 75.0 °F 71.1 °F 87% 29.98 in 10.0 mi South 12.7 mph 23.0 mph N/A   Overcast
4:49 PM 75.2 °F 71.6 °F 89% 29.98 in 10.0 mi South 11.5 mph - N/A   Overcast
4:53 PM 75.0 °F 72.0 °F 90% 29.97 in 9.0 mi South 11.5 mph - N/A   Overcast
5:53 PM 73.9 °F 71.1 °F 91% 29.96 in 6.0 mi SSW 11.5 mph - 0.01 in Rain Light Rain
6:53 PM 73.9 °F 71.1 °F 91% 29.96 in 7.0 mi South 6.9 mph - 0.08 in   Scattered Clouds
7:53 PM 73.0 °F 70.0 °F 90% 29.97 in 10.0 mi South 8.1 mph - N/A   Clear
8:53 PM 73.0 °F 70.0 °F 90% 29.97 in 10.0 mi South 9.2 mph - N/A   Partly Cloudy
9:53 PM 73.0 °F 70.0 °F 90% 29.97 in 10.0 mi South 6.9 mph - N/A   Partly Cloudy
10:53 PM 73.9 °F 70.0 °F 87% 29.97 in 10.0 mi South 9.2 mph - N/A   Overcast
11:53 PM 73.0 °F 71.1 °F 93% 29.95 in 10.0 mi South 10.4 mph - N/A   Scattered Clouds